Location: Kellogg
(38.0159°N, 90.0546°W)
Time: 14:54:32
(UTC+00:00)

Courier 1B - Pass Details

Date: 07 September 2024
Orbit: 962 x 1208 km, 28.3° (Epoch: 07 October)

Event Time Altitude Azimuth Distance (km) Brightness Sun altitude
Rises 04:21:13 0° 264° (W) 4,068 11.0 -40.6°
Enters shadow 04:24:36 - 251° (WSW) 3,133 10.2 -41.0°
Reaches altitude 10° 04:24:51 10° 249° (WSW) 3,072 - -41.0°
Maximum altitude 04:30:15 21° 204° (SSW) 2,283 - -41.6°
Drops below altitude 10° 04:35:28 10° 157° (SSE) 2,943 - -42.1°
Sets 04:38:52 0° 142° (SE) 3,852 - -42.4°
